ラッセル第3彗星

91P/Russell 3 (1997)

English version
Home page
Updated on August 17, 2006

---------------------------------------------------------------------

・ プロフィール

・ 軌道要素

   The following improved orbital elements by Kenji Muraoka, 
  are from 99 observations 1983 to 1998, including 9 Planets, 
  Moon and 5 minor planets perturbations and non-gravitational 
  effect of style II.  The mean residual is +/- 0.79 arc seconds.

      Epoch  =  1997 Nov.  8.0  TT       JDT = 2450760.5
          T  =  1997 Nov. 19.21084       +/- 0.00293 (m.e.) TT
       Peri. =  353.42862                +/- 0.00069
       Node  =  248.67169                +/- 0.00013   (2000.0)
       Incl. =   14.09576                +/- 0.00002
          q  =    2.5100681              +/- 0.0000017 AU
          e  =    0.3440937              +/- 0.0000003
          a  =    3.8268699              +/- 0.0000008 AU
          n  =    0.13165535             +/- 0.00000004
          P  =    7.486                  +/- 0.0000023  years
         A1  =   +5.870                  +/- 0.789
         A2  =   +0.54725                +/- 0.00926

・ 星図

・ 1997年 1月 2日〜1998年12月23日

・ 光度変化

        m1 = 7.5 + 5 logΔ + 20.0 log r

---------------------------------------------------------------------

軌道要素は村岡健治氏の計算によるものです。
星図は StellaNavigator Ver.2.0 for Windows (アストロアーツ 編著 / アスキー出版局刊) で作成したものです。
光度グラフはComet for Windowsで作成したものです。

---------------------------------------------------------------------

Copyright(C) Seiichi Yoshida (comet@aerith.net). All rights reserved.